TimeCST,TemperatureF,Dew PointF,Humidity,Sea Level PressureIn,VisibilityMPH,Wind Direction,Wind SpeedMPH,Gust SpeedMPH,PrecipitationIn,Events,Conditions,WindDirDegrees,DateUTC
12:45 AM,71.6,53.6,53,30.10,7.0,ENE,8.1,-,N/A,,Mostly Cloudy,60,2012-11-23 06:45:00
1:45 AM,69.8,50.0,49,30.10,7.0,ENE,6.9,-,N/A,,Mostly Cloudy,70,2012-11-23 07:45:00
2:49 AM,68.0,50.0,52,30.12,7.0,ENE,5.8,-,N/A,,Scattered Clouds,70,2012-11-23 08:49:00
3:43 AM,66.2,46.4,49,30.09,7.0,ENE,3.5,-,N/A,,Partly Cloudy,70,2012-11-23 09:43:00
4:45 AM,68.0,46.4,46,30.10,7.0,Calm,Calm,-,N/A,,Partly Cloudy,0,2012-11-23 10:45:00
5:50 AM,66.2,44.6,46,30.07,7.0,East,3.5,-,N/A,,Scattered Clouds,80,2012-11-23 11:50:00
6:42 AM,66.2,64.4,94,30.12,8.0,Calm,Calm,-,N/A,,Scattered Clouds,0,2012-11-23 12:42:00
7:45 AM,73.4,48.2,41,30.13,8.0,NE,5.8,-,N/A,,Mostly Cloudy,40,2012-11-23 13:45:00
8:42 AM,75.2,42.8,31,30.19,8.0,NE,10.4,-,N/A,,Scattered Clouds,50,2012-11-23 14:42:00
9:46 AM,75.2,42.8,31,30.16,8.0,NNE,11.5,-,N/A,,Scattered Clouds,20,2012-11-23 15:46:00
10:40 AM,75.2,41.0,29,30.15,8.0,North,5.8,-,N/A,,Mostly Cloudy,10,2012-11-23 16:40:00
11:44 AM,75.2,42.8,31,30.09,8.0,NNE,9.2,-,N/A,,Mostly Cloudy,30,2012-11-23 17:44:00
12:41 PM,77.0,44.6,32,30.11,8.0,NNE,11.5,-,N/A,,Scattered Clouds,20,2012-11-23 18:41:00
1:46 PM,77.0,42.8,29,30.09,8.0,NE,11.5,-,N/A,,Scattered Clouds,50,2012-11-23 19:46:00
2:47 PM,73.4,48.2,41,30.12,8.0,NNE,6.9,-,N/A,,Mostly Cloudy,30,2012-11-23 20:47:00
3:41 PM,73.4,50.0,44,30.08,8.0,NNE,3.5,-,N/A,,Scattered Clouds,20,2012-11-23 21:41:00
4:41 PM,71.6,44.6,38,30.09,8.0,North,13.8,-,N/A,,Mostly Cloudy,350,2012-11-23 22:41:00
5:40 PM,71.6,51.8,50,30.07,7.0,North,11.5,-,N/A,,Mostly Cloudy,360,2012-11-23 23:40:00
6:41 PM,71.6,46.4,41,30.12,7.0,North,15.0,-,N/A,,Mostly Cloudy,350,2012-11-24 00:41:00
7:48 PM,69.8,48.2,46,30.12,7.0,North,13.8,-,N/A,,Scattered Clouds,360,2012-11-24 01:48:00
8:46 PM,69.8,50.0,49,30.15,7.0,North,13.8,-,N/A,,Scattered Clouds,360,2012-11-24 02:46:00
9:47 PM,69.8,48.2,46,30.13,7.0,North,11.5,-,N/A,,Mostly Cloudy,350,2012-11-24 03:47:00
10:48 PM,69.8,48.2,46,30.12,7.0,North,9.2,-,N/A,,Mostly Cloudy,350,2012-11-24 04:48:00
11:49 PM,69.8,48.2,46,30.08,7.0,North,11.5,-,N/A,,Mostly Cloudy,360,2012-11-24 05:49:00